Preview of NWS' New Version of Forecast
This preview is not operational and should not be used for support decisions.

Regional Weather Roundup (RWR)

Issued by National Weather Service (NWS)

                            
000
ASUS45 KCYS 200110
RWRWY 

WYOMING REGIONAL WEATHER ROUNDUP
NATIONAL WEATHER SERVICE CHEYENNE WY
700 PM MDT SUN MAY 19 2019

NOTE:  "FAIR" INDICATES FEW OR NO CLOUDS BELOW 12,000 FEET
WITH NO SIGNIFICANT WEATHER AND/OR OBSTRUCTIONS TO VISIBILITY.

WYZ001-200200-
...YELLOWSTONE NATIONAL PARK...
  
CITY           SKY/WX    TMP DP  RH WIND       PRES   REMARKS
LK YELLOWSTONE NOT AVBL                                               
W YELLOWSTONE  NOT AVBL                                               

$$
WYZ002>013-054>058-071-098>099-200200-
...NORTHERN WYOMING...
  
CITY           SKY/WX    TMP DP  RH WIND       PRES   REMARKS
JACKSON        CLOUDY    41  34  76 E21G28    29.71R                  
CODY           CLOUDY    37  32  82 NW8       29.92R WCI  31          
GREYBULL       CLOUDY    49  32  52 N7        29.87S                  
WORLAND        CLOUDY    44  32  62 SE15      29.88R                  
SHERIDAN       CLOUDY    41  30  65 SE8       29.98S                  
BUFFALO        CLOUDY    37  29  72 SE10      29.98R WCI  30          
GILLETTE       CLOUDY    38  31  76 NE6       30.00R WCI  33          
HULETT         CLOUDY    37  32  81 E7        30.03S WCI  32          
NEWCASTLE      CLOUDY    41  30  65 SE10      30.02R                  

$$
WYZ014>020-022>026-101>103-200200-
...CENTRAL WYOMING...
  
CITY           SKY/WX    TMP DP  RH WIND       PRES   REMARKS
BIG PINEY      CLOUDY    43  31  62 SE25G35   29.72R                  
PINEDALE       DRIZZLE   43  34  70 E15G21    29.75S                  
DUBOIS         MIX PCPN  32  32 100 SE18G24   29.83R WCI  20          
LANDER         LGT SNOW  34  32  92 N7        29.87S FOG     WCI  28  
RIVERTON       LGT SNOW  35  32  88 E16       29.89R FOG     WCI  25  
CASPER         MIX PCPN  36  34  92 E16       29.92S WCI  26          
DOUGLAS        CLOUDY    42  33  70 E13       29.95F                  

$$
WYZ021-027>030-104>119-200200-
...SOUTHERN WYOMING...
  
CITY           SKY/WX    TMP DP  RH WIND       PRES   REMARKS
EVANSTON       CLOUDY    42  34  73 SW9       29.66S                  
KEMMERER       CLOUDY    41  36  81 N8        29.69F                  
FORT BRIDGER   CLOUDY    52  28  40 CALM      29.70R                  
ROCK SPRINGS   CLOUDY    38  36  92 E15G23    29.76R WCI  29          
DIXON          CLOUDY    49  36  59 SE14G23   29.79S                  
RAWLINS        LGT RAIN  40  38  93 NE16      29.81F WCI  31          
SARATOGA       LGT RAIN  41  41 100 NE5       29.82F                  
LARAMIE        CLOUDY    37  31  78 S18       29.88R WCI  27          
CHEYENNE       LGT RAIN  41  34  76 E15       29.93R                  
TORRINGTON     CLOUDY    46  31  55 E17       29.95R                  
PINE BLUFFS    CLOUDY    45  32  61 E18G25    29.93S                  

$$